Regional Weather Roundup
Issued by NWS

Home | Current Version | Previous Version | Graphics & Text | Print | Product List | Glossary On
Versions: 1 2 3 4 5 6 7 8 9 10 11 12 13 14 15 16 17 18 19 20 21 22 23 24 25 26 27 28 29 30 31 32 33 34 35 36 37 38 39 40 41 42 43 44 45 46 47 48 49 50
000
ASUS43 KLOT 250110
RWRIL

ILLINOIS REGIONAL WEATHER ROUNDUP
NATIONAL WEATHER SERVICE CHICAGO/ROMEOVILLE IL
800 PM CDT FRI OCT 24 2014

NOTE: "FAIR" INDICATES FEW OR NO CLOUDS BELOW 12,000 FEET WITH NO
SIGNIFICANT WEATHER AND/OR OBSTRUCTIONS TO VISIBILITY.

* THESE STATIONS ARE NOT UNDER NWS QUALITY CONTROL. THEY ALSO MAY NOT
  REPORT WEATHER SUCH AS PRECIPITATION OR FOG.

ILZ001-002-007-009-015-016-024-250200-
NORTHWEST ILLINOIS

CITY           SKY/WX    TMP DP  RH WIND       PRES   REMARKS
MOLINE         CLOUDY    63  57  81 W8        29.95R
STERLING*      CLOUDY    61  46  59 SW3       29.95R
SAVANNA*       CLOUDY    62  50  65 S5        29.93F
$$

ILZ003-004-008-010-011-017-018-250200-
NORTH CENTRAL ILLINOIS

CITY           SKY/WX    TMP DP  RH WIND       PRES   REMARKS
ROCKFORD       CLOUDY    58  47  66 S3        29.96R
FREEPORT*      CLOUDY    59  46  63 SW6       29.95S
ROCHELLE*      CLOUDY    58  47  67 S7        29.94S
DE KALB*       CLOUDY    55  45  69 S8        29.94F
PERU*          CLOUDY    60  48  64 S10       29.96F
$$

ILZ005-006-012>014-019>023-250200-
NORTHEAST ILLINOIS

CITY           SKY/WX    TMP DP  RH WIND       PRES   REMARKS
CHICAGO-OHARE  MOCLDY    61  45  55 S7        29.95R
CHICAGO-MIDWAY CLOUDY    63  48  58 S6        29.95S
AURORA         MOCLDY    55  44  66 S5        29.96R
LANSING*       CLOUDY    53  47  79 CALM      29.96S
JOLIET*        PTCLDY    53  46  77 S3        29.96S
WAUKEGAN       MOCLDY    50  48  93 CALM      29.93F FOG
DUPAGE AIRPORT MOCLDY    54  47  77 CALM      29.95R
KANKAKEE*      MOCLDY    55  46  72 SW8       29.98R
WHEELING       CLOUDY    59  46  62 S3        29.96S
MORRIS*        MOCLDY    55  48  76 S6        29.94F
ROMEOVILLE*    PTCLDY    54  45  71 S6        29.96S
NORTHERLY ISL    N/A     63  46  54 S2          N/A
$$

LMZ740>746-250200-
SOUTHERN LAKE MICHIGAN

STATION/POSITION SKY/WX   TEMP    WIND        PRES    VSBY  WAVE
                          AIR SEA DIR/SP/G                  HT/PER
                          (F)     (DEG/KT/KT) (MB)    (MI)  (FT/S)
SOUTHERN BUOY              54 54  130/  6/  6 1014.4F         0
WAUKEGAN HARBOR            54        CALM       N/A
HARRISON CRIB              60     170/ 11/ 12   N/A
BURNHAM HARBOR             62     170/  2/  6   N/A
CALUMET HARBOR             61     150/  3/  3 1013.3F
MICHIGAN CITY              57     110/  7/  8   N/A
$$

ILZ025>027-034>036-040-047-049-050-058-095>099-250200-
WEST-CENTRAL ILLINOIS

CITY           SKY/WX    TMP DP  RH WIND       PRES   REMARKS
QUINCY         MOCLDY    64  56  75 S10       29.94S
GALESBURG*     CLOUDY    62  54  74 S5        29.95R
MACOMB*        MOCLDY    58  52  79 S3        29.97S
JACKSONVILLE*  PTCLDY    65  52  63 S8        29.96F
PITTSFIELD*    MOCLDY    64  53  68 S5        29.97S
$$

ILZ028>032-037-038-041>044-048-051>054-059>061-250200-
CENTRAL ILLINOIS

CITY           SKY/WX    TMP DP  RH WIND       PRES   REMARKS
PONTIAC        MOCLDY    59  52  78 S6        29.98S
BLOOMINGTON    PTCLDY    56  54  93 S10       29.99F
DECATUR        MOCLDY    56  52  86 S7        30.01S
PEORIA         CLOUDY    63  52  67 S6        29.97R
LACON*         MOCLDY    58  49  72 S3        29.95F
LINCOLN*       MOCLDY    57  53  87 S5        29.97S
SPRINGFIELD    CLEAR     61  51  70 S7        29.98S
TAYLORVILLE    CLEAR     55  52  88 S6        30.00S
$$

ILZ033-039-045-046-055>057-062-063-250200-
EAST-CENTRAL ILLINOIS

CITY           SKY/WX    TMP DP  RH WIND       PRES   REMARKS
CHAMPAIGN      MOCLDY    52  50  93 S7        30.01S FOG
DANVILLE*      CLEAR     55  52  87 SW5       29.98S
RANTOUL*       PTCLDY    55  53  91 SW5       30.00S
MATTOON        MOCLDY    58  52  80 CALM      30.02R
PARIS*         CLEAR     53  51  92 CALM      30.03S
$$

ILZ079-100>102-250200-
SOUTHWEST ILLINOIS

CITY           SKY/WX    TMP DP  RH WIND       PRES   REMARKS
BELLEVILLE     PTCLDY    60  51  74 S5        30.00F
CAHOKIA*       PTCLDY    64  51  62 S5        30.00F
SPARTA*        PTCLDY    63  50  64 S5        30.04S
$$

ILZ064>066-069>071-074>076-080>082-084>086-088>090-092>094-250200-
SOUTH-CENTRAL ILLINOIS

CITY           SKY/WX    TMP DP  RH WIND       PRES   REMARKS
CARBONDALE     CLEAR     53  50  89 S5        30.04F
CAIRO*         CLEAR     58  53  83 CALM      30.06S
EFFINGHAM*     MOCLDY    54  49  82 CALM      30.02F
MARION         CLEAR     57  54  88 CALM      30.05S
MT. VERNON     CLEAR     52  46  82 CALM      30.04F
CENTRALIA*     CLEAR     56  50  79 S5        30.03S
SALEM*         CLEAR     57  55  94 CALM      30.03S
METROPOLIS*    CLEAR     54  54 100 CALM      30.05F FOG
$$

ILZ067-068-072-073-078-083-087-091-250200-
SOUTHEAST ILLINOIS

CITY           SKY/WX    TMP DP  RH WIND       PRES   REMARKS
LAWRENCEVILLE  PTCLDY    55  50  83 S6        30.03S
FLORA*         PTCLDY    54  50  86 CALM      30.04S
FAIRFIELD*     CLEAR     51  49  93 CALM      30.03F
HARRISBURG*    CLEAR     53  52  98 CALM      30.06S
ROBINSON*      CLEAR     57  52  83 CALM      30.04R
CARMI*         CLEAR     53  51  90 CALM      30.04S
$$

ABBREVIATIONS USED IN REMARKS
   TC - TEMPERATURE IN CELSIUS
  WCI - WIND CHILL INDEX
   HX - HEAT INDEX
  VSB - VISIBILITY
$$




USA.gov is the U.S. government's official web portal to all federal, state and local government web resources and services.